Location: Newark
(55.7083°N, 13.1992°E)
Time: 02:35:18
(UTC+00:00)

Vanguard 1 - Visible Passes

Search period start: 23 February 2020 00:00
Search period end: 04 March 2020 00:00
Orbit: 650 x 3833 km, 34.2° (Epoch: 22 February)

Date Brightness Start Highest point End Pass type
(mag) Time Alt. Az. Time Alt. Az. Time Alt. Az.
23 Feb 14.6 04:13:49 10° SSE 04:18:13 11° SE 04:22:21 10° ESE visible
24 Feb 14.4 04:28:02 10° SSE 04:38:28 15° SE 04:47:41 10° ESE visible
25 Feb 14.3 04:45:13 10° S 04:58:48 20° SE 05:10:20 10° ESE visible
26 Feb 14.3 05:03:31 10° SSW 05:19:12 24° SSE 05:32:09 10° ESE visible
27 Feb 14.4 03:10:52 10° SSE 03:18:29 13° SE 03:25:45 10° ESE visible
27 Feb 14.2 05:22:30 10° SSW 05:39:40 28° SSE 05:53:31 10° ESE visible
28 Feb 14.3 03:26:32 10° S 03:38:35 17° SE 03:49:48 10° ESE visible
29 Feb 14.2 03:44:06 10° S 03:58:47 22° SE 04:12:14 10° ESE visible
01 Mar 14.1 04:02:36 10° SSW 04:19:03 26° SSE 04:33:59 10° ESE visible
02 Mar 14.2 02:10:01 10° SSE 02:18:28 13° SE 02:26:56 10° ESE visible
02 Mar 14.0 04:21:42 10° SSW 04:39:26 30° SSE 04:55:20 10° ESE visible
03 Mar 14.1 02:26:12 10° SSE 02:38:25 18° SE 02:50:43 10° ESE visible
03 Mar 13.9 04:41:15 10° SSW 04:59:53 33° SSE 05:16:26 10° ESE visible
